This is the latest recevied weather packets stored in our database for station/object K7AEL. If no packets are shown the sender has not sent any weather packets the latest 10 day(s).
| Time | Temp. | Humidity | Pressure | Rain* | Wind** | Luminosity | Snow |
|---|---|---|---|---|---|---|---|
| 1777706116 | 19.44° C | 31% | 1014 hPa | 0 mm | - | 0 W/m² | - |
| 1777705815 | 19.44° C | 31% | 1013.9 hPa | 0 mm | - | 0 W/m² | - |
| 1777705512 | 20° C | 30% | 1014.1 hPa | 0 mm | - | 0 W/m² | - |
| 1777705210 | 20° C | 29% | 1013.9 hPa | 0 mm | - | 0 W/m² | - |
| 1777704909 | 20.56° C | 28% | 1013.9 hPa | 0 mm | - | 0 W/m² | - |
| 1777704606 | 21.11° C | 28% | 1013.9 hPa | 0 mm | - | 0 W/m² | - |
| 1777704304 | 21.11° C | 28% | 1014.1 hPa | 0 mm | - | 0 W/m² | - |
| 1777704001 | 21.11° C | 27% | 1013.9 hPa | 0 mm | - | 0 W/m² | - |
| 1777703699 | 21.67° C | 27% | 1013.8 hPa | 0 mm | - | 0 W/m² | - |
| 1777703396 | 21.67° C | 27% | 1013.9 hPa | 0 mm | - | 0 W/m² | - |
| 1777703093 | 21.67° C | 27% | 1013.7 hPa | 0 mm | - | 0 W/m² | - |
| 1777702791 | 21.67° C | 27% | 1013.7 hPa | 0 mm | - | 0 W/m² | - |
| 1777702489 | 21.67° C | 27% | 1013.6 hPa | 0 mm | - | 0 W/m² | - |
| 1777702185 | 21.67° C | 27% | 1013.7 hPa | 0 mm | - | 0 W/m² | - |
| 1777701880 | 21.67° C | 27% | 1013.6 hPa | 0 mm | - | 0 W/m² | - |
| 1777701577 | 21.67° C | 27% | 1013.7 hPa | 0 mm | - | 0 W/m² | - |
| 1777701275 | 21.67° C | 27% | 1013.6 hPa | 0 mm | - | 0 W/m² | - |
| 1777700969 | 21.67° C | 27% | 1013.6 hPa | 0 mm | - | 0 W/m² | - |
| 1777700667 | 21.67° C | 27% | 1013.6 hPa | 0 mm | - | 0 W/m² | - |
| 1777700364 | 21.67° C | 27% | 1013.4 hPa | 0 mm | - | 0 W/m² | - |
| 1777700061 | 22.22° C | 27% | 1013.5 hPa | 0 mm | - | 0 W/m² | - |
| 1777699759 | 21.67° C | 27% | 1013.5 hPa | 0 mm | - | 0 W/m² | - |
| 1777699457 | 21.67° C | 27% | 1013.6 hPa | 0 mm | - | 0 W/m² | - |
| 1777699154 | 21.67° C | 28% | 1013.5 hPa | 0 mm | - | 0 W/m² | - |
| 1777698853 | 21.67° C | 28% | 1013.4 hPa | 0 mm | - | 0 W/m² | - |
* Rain latest hour (hover to see other rain measurements)
** Current wind speed in m/s (hover to see current wind gust speed)